Starlink 30254

operational
NORAD ID: 57533 Int'l Des: 2023-115 Owner: SPXS Country: US Constellation: starlink
LEOCIRCULAR

About Starlink 30254

Description loading...

Live Position

Loading 3D Globe...

Upcoming Passes

Altitude History

Altitude vs Time

uPlot chart will show altitude changes over time

Two-Line Element Set

1 57533U 23115N 25352.56874577 .00000276 00000-0 19542-4 0 9991
2 57533 43.0033 201.2906 0000592 273.2122 86.8662 15.27569787132956
Epoch: Dec 18, 2025 • Age: 14 hours

Current Status

Altitude 491.2 km
Velocity 7.62 km/s
Sub-Earth Point -31.18°S, 16.45°E
Launch Date Aug 8, 2023
Age 2.3 years
Type internet

Technical Details

Classification Payload
Mass 730.00 kg
Dry Mass 700.00 kg
Total Mass 730.00 kg
Length 0.30 m
Diameter 4.10 m
Span 29.00 m
Shape Box + pan
Manufacturer SPXS
Bus Type Starlink V2M
Phase Status In Orbit
Owner/State SPXS/US

Large Constellations

Loading constellations...